STARLINK-5736, 55584

Orbit data source: Space-Track

STARLINK-5736, 55584 is a payload satellite owned by SpaceX/Seattle (US) in LEO that was launched on Sun, 12 Feb 2023 UTC via an FALCON 9 launch vehicle from the Air Force Eastern Test Range (AFETR). Payload-class satellites include a variety of spacecraft equipped with specific instruments for various scientific and technological missions. These include communications satellites like Starlink; space stations such as the ISS; scientific satellites like the Hubble; Earth observation satellites from companies like Planet Labs, Umbra, and HawkEye 360; GPS; miniature CubeSats for education and research; and military/defense satellites.

Loading next visibility...
Identifier
55584, 2023-020R
Orbit
LEO
Country
Flag of USUS
Related business
Manufacturer
SpaceX/Seattle
Mission
Operational Commercial Communications
Bus & Motor
STARLINK, Unknown motor
Mass
305 kg wet, ~290 kg dry
Launch date (UTC)
2023-02-12 (3 years ago)
Launch vehicle
FALCON 9
Launch site
Air Force Eastern Test Range (AFETR)
Object type
Payload
Rocket body
Debris
Shape & HBR
Box + 1 Pan, 10.1 m
Radar Cross Section
13.562 m², Large (>1 m²)

Expand to show TLE details & history
Last TLE update: 19 hours ago

TLE from 19 hours ago
0 STARLINK-5736
1 55584U 23020R   26023.31348833 -.00000286  00000-0 -61256-5 0  9993
2 55584  43.0017 251.1971 0001059 279.2076  80.8647 15.02530456162090
Epoch: 2026-01-23T07:31Z
TLE epoch observation values (Epoch: 2026-01-23T07:31:25.391Z)
Latitude
Longitude
15.68722°
Altitude
558.758 km
Speed
7.584 km/s
True Right ascension
16h 44m 47s
True Declination
0° 00' 00"
Sunlit
Object was in daylight at epoch
Visualization orbit readout
Latitude
Unknown
Longitude
Unknown
Altitude
Unknown
Speed
Unknown
Apparent Right ascension
Unknown
Apparent Declination
Unknown
Sunlit
N/A
Visualization observer readout
Local Sidereal Time
04:07:51
Azimuth
Unknown
Elevation
Unknown
Doppler factor
Unknown
Orbital elements
Apogee altitude
561.755 km
Perigee altitude
560.285 km
Semi-major axis
6,939.157 km
Eccentricity
0.00011
Inclination
43.0017°
RAAN
251.1971°
Arg. of periapsis
279.2076°
True anomaly
80.87668°
Mean anomaly
80.8647°
Eccentric anomaly
80.87069°
Mean motion
3.75477 °/min
Orbital period
95.88 mins
BSTAR
-0.0000061256
Loading maneuver chart data...
Computing Atmospheric mass density...
Loading historical data...
Loading historical data...
Loading historical data...
Loading historical data...
Loading historical data...
Loading historical data...
Loading historical data...

Documentation

Showing up to 5 results
|